Overview Statistics Trail Chart Weather Telemetry Raw packets
 

This is the latest recevied weather packets stored in our database for station/object KG5WBN. If no packets are shown the sender has not sent any weather packets the latest 10 day(s).

<< 105 106 107 108 109 110 111 >>
Time Temp. Humidity Pressure Rain* Wind** Luminosity Snow
1787770390 35° C 42% 1014.6 hPa 0 mm - 362 W/m² -
1787770089 35° C 42% 1014.9 hPa 0 mm - 362 W/m² -
1787769783 34.44° C 42% 1014.9 hPa 0 mm - 359 W/m² -
1787769482 34.44° C 42% 1015.2 hPa 0 mm - 359 W/m² -
1787769176 34.44° C 42% 1014.9 hPa 0 mm - 360 W/m² -
1787768871 33.33° C 43% 1014.9 hPa 0 mm - 361 W/m² -
1787768567 33.89° C 43% 1015.2 hPa 0 mm - 353 W/m² -
1787768263 34.44° C 42% 1015.2 hPa 0 mm - 356 W/m² -
1787767959 33.89° C 43% 1015.2 hPa 0 mm - 356 W/m² -
1787767654 34.44° C 42% 1015.2 hPa 0 mm - 353 W/m² -
1787767352 34.44° C 42% 1015.2 hPa 0 mm - 351 W/m² -
1787767052 34.44° C 42% 1015.6 hPa 0 mm - 347 W/m² -
1787766750 33.33° C 43% 1015.6 hPa 0 mm - 340 W/m² -
1787766450 33.33° C 43% 1015.6 hPa 0 mm - 294 W/m² -
1787766145 33.33° C 43% 1015.2 hPa 0 mm - 336 W/m² -
1787765841 33.89° C 43% 1015.6 hPa 0 mm - 332 W/m² -
1787765537 33.33° C 43% 1015.6 hPa 0 mm - 331 W/m² -
1787765237 33.33° C 44% 1015.6 hPa 0 mm - 343 W/m² -
1787764936 33.33° C 44% 1015.6 hPa 0 mm - 343 W/m² -
1787764632 33.33° C 43% 1015.6 hPa 0 mm - 327 W/m² -
1787764332 33.89° C 43% 1015.6 hPa 0 mm - 321 W/m² -
1787764028 33.89° C 43% 1015.9 hPa 0 mm - 323 W/m² -
1787763723 33.89° C 43% 1015.9 hPa 0 mm - 322 W/m² -
1787763418 33.89° C 52% 1015.6 hPa 0 mm - 319 W/m² -
1787763118 33.33° C 43% 1015.6 hPa 0 mm - 317 W/m² -

* Rain latest hour (hover to see other rain measurements)
** Current wind speed in m/s (hover to see current wind gust speed)